Temp
2 2 2 3 3 3 3 4 4 5 5 5 5 6 6 6 6 6 6 7 7 6 6 5 5 5 5 3 7 9 8 9 9 10 11 10 9 10 9 11 13 13 14 16 17 18 18
1 1 2 2 3 3 3 4 4 4 4 5 5 5 5 5 5 6 6 7 7 7 7 6 5 4 2 1 9 8 9 9 8 8 9 8 9 9 9 11 12 14 14 15 16 17 17
1 1 2 2 2 2 3 3 3 3 4 4 4 4 4 5 5 5 5 6 6 6 6 6 6 4 2 4 8 8 8 7 7 7 7 7 8 9 8 9 11 12 12 14 15 16 17
1 1 1 1 1 2 2 2 2 3 3 3 3 4 4 4 4 4 5 6 6 5 6 6 5 4 3 7 6 7 5 7 6 6 6 6 7 7 8 9 10 12 12 12 16 16 17
0 1 0 1 1 1 1 1 2 2 2 2 3 3 3 4 4 4 5 5 5 4 6 5 4 2 2 5 6 6 6 6 6 6 5 7 6 7 9 9 10 10 12 13 14 16 16
0 0 0 1 1 1 1 1 1 1 1 2 2 2 3 3 3 4 4 5 5 4 4 4 2 2 4 6 5 5 5 5 5 5 6 6 6 7 8 8 9 9 10 12 14 17 16
-0 0 0 0 0 1 1 0 0 1 1 1 1 2 2 3 3 3 3 4 3 3 4 2 3 3 3 4 4 4 4 4 4 4 4 6 5 7 8 10 10 11 12 12 15 16 16
-1 -1 -0 0 0 0 0 0 0 0 0 1 1 1 2 2 3 2 2 2 1 -0 1 3 4 3 4 4 2 6 5 4 4 3 5 4 3 6 7 8 8 10 10 12 13 15 16
-1 -1 -1 -0 -1 -0 -0 0 0 0 -0 -0 0 1 1 2 2 2 2 1 1 2 0 3 5 5 6 6 4 5 5 4 3 3 3 3 5 7 6 7 6 6 9 11 11 14 16
-0 -0 -0 -0 -0 -0 -0 -0 0 0 0 -0 -0 0 1 1 2 2 2 1 2 2 -3 2 5 6 7 7 5 6 7 5 4 3 4 4 5 5 5 5 7 6 8 9 12 12 12
-0 -1 -1 -1 -0 -1 -1 -1 -1 -1 -0 -0 -0 0 -0 0 1 1 1 1 2 1 -5 5 7 7 7 7 6 7 6 4 3 3 4 4 5 5 5 6 7 6 8 9 11 11 12
-0 -1 -1 -1 -1 -1 -1 -1 -1 -1 -0 -0 -0 0 0 0 1 1 1 1 2 -5 -5 5 6 5 5 6 6 6 5 4 4 4 4 4 5 5 5 6 7 8 7 7 7 9 10
-0 -0 -1 -1 -1 -1 -1 -1 -1 -0 -0 -0 -0 0 0 0 1 1 1 1 -4 -6 2 4 4 4 4 4 5 5 5 3 1 1 -2 4 4 4 5 4 6 5 6 7 8 9 11
-1 -1 -1 -1 -2 -1 -1 -1 -0 -1 -0 -0 0 1 1 1 1 1 1 -4 -6 -0 2 4 4 4 4 4 3 4 4 1 2 2 3 2 1 4 5 5 6 7 6 8 8 11 11
-1 -1 -1 -1 -2 -1 -1 -1 -1 -1 -0 -0 0 1 1 1 1 1 1 -7 -4 0 4 3 3 3 3 4 3 2 2 3 2 2 1 0 1 6 6 6 5 7 6 9 9 8 11
-1 -1 -1 -1 -1 -1 -1 -1 -1 -1 -0 -1 -0 1 1 1 1 1 -3 -4 -0 2 3 3 2 3 1 2 1 2 1 3 2 2 0 2 3 5 5 6 6 5 6 7 7 9 10
-1 -1 -1 -1 -1 -1 -1 -2 -1 -1 -1 -1 -1 -0 1 1 1 0 -5 -5 0 3 3 2 2 2 2 2 3 2 3 4 3 3 1 2 2 4 5 4 3 3 6 6 6 8 10
-2 -2 -1 -1 -1 -1 -2 -2 -2 -1 -1 -1 -1 -6 1 0 -1 -3 -4 -1 2 2 2 3 3 3 3 2 2 3 2 3 4 3 3 2 2 2 4 4 2 3 4 4 7 8 8
-2 -2 -2 -1 -1 -1 -1 -2 -2 -2 -2 -1 -1 -2 0 1 -7 -10 -3 0 1 1 2 2 2 3 2 2 1 2 3 4 3 2 3 2 1 2 4 3 3 2 3 2 3 5 8
-2 -2 -2 -2 -2 -1 -2 -1 -2 -2 -2 -2 -2 -5 -0 -0 -1 -2 -1 -1 -0 1 1 1 2 2 1 1 2 1 1 2 3 3 3 2 2 2 2 2 2 2 3 3 3 4 5
-2 -2 -2 -2 -2 -2 -2 -2 -2 -2 -2 -2 -2 -5 -3 -8 -3 -2 -1 -1 -1 -0 1 2 1 1 0 -1 0 1 1 1 2 3 3 2 1 1 1 3 4 3 3 3 3 3 4
-2 -2 -2 -2 -2 -2 -2 -2 -2 -2 -2 -3 -3 -4 -3 -3 -2 -2 -2 -2 -0 -0 -0 0 -0 0 -0 -2 -1 -2 -0 0 1 2 1 2 0 1 2 4 4 4 5 5 5 4 4
-2 -2 -2 -2 -1 -2 -2 -2 -2 -2 -2 -3 -3 -3 -3 -3 -4 -3 -4 -1 -0 -0 0 0 -0 -1 -1 -0 1 1 1 1 1 0 1 0 -1 1 -0 2 2 2 5 6 5 5 4
-2 -3 -2 -2 -1 -2 -2 -2 -2 -2 -2 -3 -3 -3 -3 -5 -4 -3 -1 -1 -1 -1 -1 -0 -1 -1 -0 0 0 1 0 0 0 0 1 0 0 -1 -1 0 -3 4 6 7 6 7 6
-3 -3 -2 -2 -2 -2 -2 -2 -2 -2 -2 -2 -3 -3 -3 -4 -3 -2 -2 -2 -1 -1 -2 -2 -1 -1 -1 -0 -2 -6 -6 -5 -3 0 1 2 1 -4 -4 -2 3 4 8 6 6 7 8
-3 -3 -2 -2 -2 -2 -2 -2 -2 -2 -2 -3 -3 -3 -4 -4 -4 -2 -3 -3 -3 -4 -3 -2 -1 -0 -1 -6 -9 -7 -6 -2 -2 1 3 2 2 1 -4 -2 -2 4 7 7 6 5 8
-4 -4 -3 -3 -2 -2 -2 -3 -3 -2 -2 -3 -3 -3 -3 -4 -3 -3 -4 -4 -3 -4 -4 -4 -2 -2 -1 -12 -7 -6 -3 1 0 -1 0 1 1 -1 1 -1 2 5 4 6 5 4 5
-4 -3 -3 -3 -3 -3 -3 -3 -3 -2 -3 -3 -3 -3 -4 -4 -4 -4 -3 -4 -4 -4 -4 -3 -4 -5 -6 -4 -6 -2 -2 -1 -1 1 1 1 -2 -1 -1 -2 -1 3 4 4 3 4 4
-4 -4 -4 -3 -3 -3 -3 -3 -3 -3 -3 -3 -4 -4 -4 -4 -4 -4 -3 -4 -3 -3 -4 -4 -2 -3 -2 -8 -9 -7 -6 -4 -1 -2 2 0 1 1 1 0 3 3 5 4 4 4 4
Height
1533 1533 1533 1533 1529 1526 1526 1525 1525 1523 1521 1518 1514 1513 1511 1508 1507 1505 1503 1501 1499 1496 1493 1491 1489 1487 1484 1485 1484 1483 1482 1480 1479 1479 1478 1478 1479 1479 1476 1473 1473 1469 1459 1463 1464 1463 1460
1535 1534 1534 1532 1529 1528 1527 1526 1525 1523 1520 1516 1514 1513 1510 1508 1506 1503 1501 1499 1496 1494 1492 1489 1487 1484 1483 1484 1477 1477 1476 1477 1477 1475 1475 1474 1476 1476 1475 1471 1471 1457 1459 1459 1460 1455 1457
1536 1535 1534 1532 1531 1530 1528 1526 1525 1522 1519 1516 1514 1511 1508 1506 1504 1501 1499 1497 1494 1491 1489 1487 1486 1484 1480 1473 1474 1473 1473 1475 1476 1474 1473 1472 1474 1475 1472 1470 1467 1462 1461 1458 1447 1449 1449
1535 1534 1534 1532 1531 1530 1528 1527 1525 1522 1519 1515 1513 1510 1507 1505 1503 1500 1498 1495 1492 1489 1486 1485 1483 1481 1473 1469 1469 1468 1469 1472 1474 1474 1472 1471 1471 1472 1468 1468 1466 1463 1460 1458 1424 1445 1441
1534 1534 1533 1532 1531 1530 1529 1527 1525 1522 1518 1515 1512 1509 1506 1504 1502 1499 1497 1493 1490 1486 1483 1483 1481 1481 1473 1470 1469 1469 1471 1471 1470 1471 1470 1466 1468 1467 1466 1467 1467 1463 1447 1441 1426 1432 1439
1533 1533 1532 1531 1530 1529 1528 1527 1524 1521 1517 1514 1511 1508 1506 1504 1501 1498 1494 1491 1488 1486 1483 1481 1481 1484 1474 1472 1469 1468 1468 1469 1468 1467 1467 1464 1465 1461 1459 1459 1448 1453 1450 1437 1419 1418 1437
1532 1531 1530 1530 1529 1528 1527 1526 1523 1520 1517 1514 1511 1508 1505 1503 1499 1497 1494 1490 1490 1488 1484 1484 1481 1479 1470 1471 1468 1463 1465 1466 1465 1465 1465 1463 1464 1451 1447 1446 1442 1446 1444 1435 1412 1424 1431
1531 1530 1528 1527 1526 1526 1525 1524 1522 1519 1516 1513 1510 1507 1504 1502 1499 1497 1496 1494 1499 1499 1481 1475 1471 1474 1468 1468 1466 1460 1461 1466 1464 1464 1462 1465 1459 1452 1452 1448 1445 1441 1438 1430 1414 1425 1424
1529 1527 1526 1525 1524 1523 1522 1521 1519 1516 1514 1512 1509 1506 1503 1500 1498 1498 1496 1497 1497 1495 1491 1473 1471 1470 1467 1465 1464 1462 1462 1462 1462 1461 1460 1461 1448 1448 1449 1444 1445 1441 1432 1426 1422 1423 1420
1528 1526 1525 1524 1522 1521 1520 1519 1517 1514 1512 1509 1507 1505 1502 1499 1500 1497 1496 1496 1495 1493 1501 1479 1470 1470 1468 1464 1462 1459 1457 1458 1458 1456 1455 1451 1444 1443 1443 1442 1439 1436 1435 1429 1423 1431 1429
1526 1525 1524 1522 1521 1519 1518 1517 1515 1512 1509 1506 1504 1503 1501 1499 1498 1498 1498 1495 1493 1494 1534 1474 1469 1470 1466 1465 1463 1458 1457 1455 1455 1452 1455 1441 1436 1437 1436 1427 1437 1425 1430 1428 1419 1421 1417
1524 1523 1522 1520 1519 1517 1516 1515 1513 1510 1507 1504 1502 1500 1499 1498 1497 1497 1494 1493 1493 1512 1527 1474 1471 1472 1468 1463 1460 1456 1455 1454 1452 1450 1445 1437 1431 1430 1423 1423 1425 1424 1429 1427 1425 1416 1405
1521 1520 1519 1518 1516 1515 1514 1513 1510 1507 1505 1502 1499 1498 1496 1495 1494 1494 1493 1493 1510 1527 1485 1477 1475 1474 1468 1464 1461 1457 1453 1454 1458 1457 1458 1432 1421 1417 1420 1425 1423 1427 1426 1420 1410 1396 1385
1518 1517 1516 1515 1513 1512 1511 1510 1508 1506 1503 1500 1497 1494 1492 1491 1490 1493 1493 1495 1525 1495 1485 1478 1478 1471 1467 1466 1463 1458 1454 1457 1452 1452 1447 1447 1439 1418 1417 1420 1409 1403 1411 1400 1396 1375 1372
1514 1513 1512 1511 1510 1509 1509 1508 1506 1504 1501 1498 1495 1493 1492 1492 1492 1493 1494 1517 1507 1491 1483 1483 1477 1471 1470 1467 1468 1461 1456 1451 1448 1449 1455 1453 1440 1413 1414 1411 1415 1395 1393 1384 1394 1379 1366
1511 1511 1510 1509 1508 1507 1507 1506 1505 1503 1501 1498 1494 1493 1493 1493 1492 1494 1497 1503 1492 1486 1485 1484 1483 1476 1477 1472 1472 1467 1458 1447 1446 1446 1447 1444 1431 1411 1409 1405 1399 1398 1390 1387 1387 1380 1374
1508 1508 1507 1506 1506 1505 1504 1503 1502 1501 1500 1497 1495 1493 1494 1493 1494 1496 1506 1503 1490 1486 1486 1485 1481 1478 1475 1474 1468 1465 1455 1447 1448 1444 1444 1442 1436 1417 1410 1411 1413 1406 1386 1382 1373 1367 1360
1505 1504 1504 1503 1503 1502 1501 1501 1500 1499 1499 1497 1496 1496 1493 1493 1496 1497 1499 1493 1489 1485 1483 1481 1478 1475 1473 1472 1466 1462 1458 1454 1448 1447 1439 1436 1433 1428 1411 1408 1413 1408 1399 1394 1366 1358 1356
1501 1501 1500 1500 1499 1499 1499 1499 1498 1497 1497 1497 1496 1494 1492 1492 1504 1505 1493 1489 1488 1485 1482 1480 1478 1474 1472 1470 1469 1460 1455 1450 1448 1447 1441 1435 1432 1427 1409 1410 1408 1407 1401 1397 1395 1377 1350
1498 1497 1497 1496 1496 1496 1495 1495 1496 1496 1495 1497 1497 1496 1491 1491 1491 1492 1492 1489 1487 1484 1481 1478 1475 1472 1472 1470 1466 1462 1457 1451 1447 1445 1440 1433 1428 1427 1424 1423 1416 1411 1398 1396 1397 1388 1377
1494 1493 1493 1493 1493 1492 1492 1492 1493 1494 1494 1497 1496 1495 1493 1498 1491 1489 1492 1490 1487 1485 1480 1477 1474 1473 1473 1471 1464 1459 1455 1449 1443 1439 1438 1439 1435 1430 1424 1414 1405 1401 1397 1389 1390 1390 1384
1489 1489 1489 1489 1489 1490 1489 1489 1489 1490 1492 1494 1494 1493 1492 1490 1488 1489 1488 1487 1482 1481 1480 1476 1475 1472 1470 1472 1467 1461 1456 1452 1448 1437 1436 1436 1433 1425 1417 1406 1401 1396 1383 1379 1382 1379 1374
1484 1484 1484 1484 1485 1486 1486 1485 1486 1487 1488 1489 1491 1491 1492 1487 1486 1486 1485 1480 1478 1478 1475 1472 1472 1470 1467 1462 1457 1452 1448 1443 1440 1438 1433 1436 1432 1425 1423 1411 1407 1401 1377 1374 1371 1374 1377
1480 1480 1480 1481 1482 1482 1482 1482 1482 1484 1484 1485 1486 1488 1487 1484 1483 1481 1478 1477 1475 1475 1473 1469 1468 1467 1461 1456 1452 1445 1438 1431 1427 1423 1425 1424 1427 1430 1422 1414 1441 1385 1373 1368 1367 1366 1366
1475 1475 1476 1477 1478 1478 1479 1479 1479 1480 1480 1481 1481 1484 1483 1478 1475 1475 1474 1473 1471 1469 1469 1467 1462 1459 1457 1453 1452 1454 1445 1434 1418 1410 1407 1409 1419 1438 1439 1422 1395 1378 1367 1370 1369 1365 1361
1470 1471 1471 1473 1473 1474 1475 1475 1475 1476 1478 1477 1478 1479 1479 1477 1467 1468 1469 1468 1468 1467 1464 1459 1457 1454 1453 1451 1462 1465 1458 1434 1426 1407 1396 1400 1409 1416 1433 1427 1428 1376 1366 1367 1365 1369 1361
1465 1466 1466 1468 1469 1469 1470 1471 1471 1472 1473 1473 1472 1475 1474 1471 1464 1463 1465 1464 1463 1463 1462 1459 1455 1452 1450 1459 1461 1457 1443 1421 1421 1421 1411 1408 1410 1416 1408 1419 1397 1380 1373 1365 1369 1382 1366
1462 1462 1462 1464 1464 1465 1466 1466 1466 1468 1469 1469 1467 1469 1470 1466 1458 1458 1458 1458 1458 1459 1458 1456 1458 1449 1449 1449 1453 1441 1437 1427 1426 1413 1409 1406 1419 1414 1411 1415 1409 1382 1376 1379 1381 1373 1372
1457 1458 1458 1459 1459 1460 1461 1462 1462 1463 1464 1464 1464 1464 1464 1462 1452 1451 1450 1449 1447 1449 1452 1452 1450 1446 1445 1450 1452 1447 1447 1437 1425 1424 1404 1409 1402 1403 1404 1399 1381 1377 1376 1374 1375 1372 1367
Wind_Speed
8 9 10 10 10 9 10 11 11 11 11 11 12 12 13 14 15 16 17 17 18 19 21 22 22 23 26 10 17 16 19 16 20 18 16 10 6 8 7 5 7 14 19 25 17 24 33
7 8 9 10 11 10 11 11 12 12 12 12 13 13 14 16 17 17 18 18 18 19 19 20 21 21 18 9 8 6 19 20 13 14 14 12 6 10 11 8 9 10 11 18 25 30 23
5 7 8 10 11 11 11 12 12 12 13 13 14 15 16 16 17 18 19 19 19 19 20 20 19 20 20 29 18 19 16 16 9 15 17 16 9 12 2 5 13 18 15 16 21 10 20
6 8 9 9 10 10 11 12 12 13 13 14 14 15 16 17 17 19 19 19 17 19 21 20 17 16 14 20 17 12 7 4 11 15 17 21 10 13 9 8 8 6 11 17 29 16 13
6 6 7 9 9 10 10 11 12 13 14 14 15 15 16 17 18 19 18 17 16 12 11 10 9 6 14 9 9 6 12 18 18 16 21 19 10 11 8 9 7 6 15 25 28 19 7
7 7 7 8 10 10 11 12 13 13 14 15 15 16 17 17 18 17 16 17 9 5 10 8 4 6 9 7 6 15 19 18 21 24 13 6 7 6 9 9 19 15 17 18 27 22 17
9 10 10 9 8 8 11 13 15 14 15 15 16 17 18 17 19 11 16 13 12 4 18 15 26 21 35 26 31 37 31 22 22 11 3 3 2 14 21 20 22 21 23 21 32 6 16
10 9 9 8 10 10 11 13 12 15 16 16 16 17 18 18 15 6 12 8 11 11 15 26 18 21 19 15 11 12 4 6 3 5 2 3 11 13 17 16 17 26 27 29 31 12 13
12 9 8 9 8 9 11 13 14 14 14 16 17 17 19 19 10 10 9 9 7 12 5 14 4 4 5 2 6 6 3 4 6 9 10 12 12 12 14 18 22 14 24 32 29 12 19
8 7 6 8 9 9 11 12 12 14 15 16 17 17 17 20 5 16 4 7 9 11 4 6 3 3 9 7 2 3 7 3 3 7 6 10 13 15 16 17 19 21 22 26 31 19 17
12 10 10 11 14 11 13 14 15 18 17 15 16 15 15 15 15 9 7 9 7 1 4 5 3 6 19 4 4 6 8 2 6 8 3 9 11 9 13 21 15 21 17 21 24 22 21
12 10 11 15 16 12 12 13 16 17 17 14 15 15 15 13 13 2 9 11 1 6 5 4 3 9 9 5 3 5 3 4 6 7 9 21 19 11 16 15 14 12 15 16 12 10 20
11 11 14 17 14 9 10 14 16 14 14 14 17 17 12 14 11 5 6 4 5 4 5 4 6 12 12 3 5 4 4 2 1 5 4 11 6 6 13 13 16 18 11 8 9 11 17
13 13 13 14 12 12 13 12 11 14 14 17 19 15 12 7 5 4 2 5 4 3 5 5 10 13 4 8 10 7 7 3 2 2 5 4 9 3 5 13 8 15 23 10 10 6 15
11 12 12 10 12 13 11 10 11 12 15 16 19 12 6 7 6 3 2 4 6 4 3 8 12 4 3 11 6 5 3 3 6 6 3 3 6 3 10 11 12 4 14 30 18 16 7
12 12 10 10 10 10 11 11 11 12 14 15 18 10 7 6 3 6 4 3 3 3 6 4 3 3 7 9 8 9 3 4 3 4 3 3 9 6 5 8 13 12 7 9 8 16 12
12 12 11 11 12 12 10 11 11 10 12 13 12 5 6 6 4 1 3 5 4 9 10 3 4 6 4 5 9 6 6 6 4 3 8 3 5 8 8 5 8 8 6 6 5 7 9
13 12 10 11 12 11 11 11 10 8 10 11 6 2 6 6 2 1 2 4 7 7 12 5 4 3 6 9 6 4 4 9 13 9 6 5 2 4 14 0 7 8 6 8 4 4 3
11 7 9 11 12 11 9 10 9 7 7 8 6 5 2 7 1 2 4 4 5 3 3 4 4 3 3 4 5 5 6 9 15 11 6 3 3 4 8 3 2 4 4 8 12 5 8
14 10 12 11 11 10 11 9 9 6 6 4 3 3 2 4 2 3 2 4 3 7 9 7 5 6 3 4 4 7 8 7 21 16 13 9 3 5 4 9 6 7 12 8 4 4 9
15 15 13 12 10 9 9 9 9 7 6 4 3 3 1 3 3 1 1 4 10 4 5 5 4 4 7 5 11 6 14 13 9 8 4 4 5 2 10 15 13 17 17 15 12 10 6
15 15 15 15 10 9 10 11 11 8 6 8 3 3 2 4 9 5 5 4 5 7 4 7 6 9 8 5 8 15 10 6 7 11 5 5 5 15 10 14 8 17 22 19 13 13 11
16 15 15 14 13 12 11 8 9 10 12 9 7 11 7 6 3 2 4 5 5 4 10 11 8 8 12 14 20 21 23 25 16 16 16 6 3 4 5 6 11 9 4 3 3 5 8
16 15 14 13 13 14 13 12 11 13 16 16 12 10 5 4 4 5 5 9 11 14 13 19 14 7 18 28 28 23 25 25 21 18 17 15 7 2 8 2 2 6 16 14 12 10 9
16 16 16 15 14 14 15 14 13 15 16 18 16 12 5 4 6 9 11 10 16 17 9 13 28 22 23 12 3 6 5 6 7 16 17 17 7 3 2 2 9 9 4 8 9 7 5
15 16 15 14 15 16 15 15 15 15 14 18 18 17 11 5 7 14 8 5 4 5 10 9 11 23 15 2 3 3 3 4 6 9 2 6 9 4 1 1 4 4 12 15 13 2 16
16 14 16 15 15 15 15 17 15 13 14 17 21 21 16 8 19 23 9 7 6 2 3 7 12 5 7 1 1 3 3 4 3 5 5 2 3 6 6 4 6 6 16 17 2 5 27
12 12 11 13 16 15 17 16 15 13 14 17 19 21 20 15 25 32 32 24 19 11 7 8 10 3 1 2 2 2 2 4 4 6 6 3 3 3 2 3 6 8 7 4 6 22 19
12 12 13 14 15 16 14 15 16 18 17 16 18 21 19 24 25 29 28 27 25 23 19 13 9 5 3 2 1 1 2 3 4 3 3 3 2 1 2 4 14 24 11 9 13 19 18
Wind_Direction
37 34 27 20 15 14 5 359 353 350 348 347 347 342 334 333 332 329 324 321 321 319 319 320 317 316 318 306 270 281 277 300 316 306 293 280 261 236 233 218 218 247 253 257 264 251 251
33 25 19 14 14 7 360 357 353 353 353 351 349 344 341 340 338 332 326 326 323 319 314 309 311 312 313 283 308 279 304 306 316 318 327 286 236 223 300 253 229 266 264 273 260 257 261
14 10 6 8 8 5 2 358 354 353 353 352 349 347 346 344 339 332 329 327 324 322 311 303 301 299 288 274 294 283 279 295 338 350 337 339 259 240 295 311 294 275 285 292 256 256 245
355 346 342 350 354 358 0 357 354 354 354 352 348 346 344 345 338 332 330 327 325 316 312 308 301 285 269 303 302 325 321 282 324 339 330 323 305 257 238 274 321 263 236 250 251 237 236
317 315 322 331 337 345 345 346 351 353 354 352 349 347 345 342 336 331 329 326 325 321 328 303 288 274 276 314 328 356 339 314 316 327 321 313 255 221 219 223 244 237 238 230 254 224 196
285 295 311 299 319 328 330 334 338 344 349 349 349 349 347 346 336 332 332 335 334 310 337 333 337 312 279 342 317 309 308 306 304 312 329 16 216 228 206 198 226 220 232 246 244 228 222
295 297 294 288 291 300 313 321 324 331 338 342 344 346 343 345 339 350 339 3 13 328 309 282 274 265 280 285 287 279 283 291 293 279 230 244 265 231 227 220 242 241 240 251 256 174 213
305 308 309 307 289 289 297 301 304 317 323 328 333 339 339 342 342 9 346 65 32 324 303 304 296 275 284 300 295 346 332 223 227 245 192 284 245 254 287 266 260 239 230 245 266 260 227
307 304 303 316 312 314 309 305 305 304 309 315 320 329 334 338 340 337 351 33 345 320 297 304 291 252 10 293 229 332 29 219 247 264 250 240 242 296 285 256 250 259 239 234 238 253 247
332 334 331 340 332 322 326 324 326 325 316 308 309 318 326 332 342 344 61 320 314 321 40 278 231 7 325 337 258 59 326 224 227 257 249 253 252 248 254 250 246 249 244 255 241 237 250
311 319 318 318 328 311 317 318 320 325 323 316 312 313 321 329 325 346 348 331 327 7 18 278 73 343 352 352 298 237 311 182 224 233 225 249 232 219 255 249 241 255 238 263 248 243 239
295 290 299 306 315 311 314 317 318 323 327 325 324 322 312 317 317 302 323 334 50 47 258 329 69 346 340 272 261 273 258 270 255 282 243 255 266 257 232 249 251 236 235 252 286 255 232
285 278 285 302 310 297 295 301 316 324 333 333 328 327 304 301 300 294 312 346 39 125 301 6 341 333 314 298 304 292 258 243 192 337 321 308 261 246 221 254 261 242 221 228 231 217 234
270 283 294 303 305 305 295 309 315 325 327 327 327 328 319 302 233 192 331 56 95 257 267 350 338 315 295 29 324 319 290 291 262 237 302 311 324 157 161 223 261 224 207 212 224 243 223
280 282 289 288 287 300 306 304 322 325 329 327 332 339 86 48 178 156 63 64 206 228 339 338 322 309 312 336 320 325 256 238 205 190 189 306 268 238 286 245 213 261 219 216 238 263 262
281 289 297 305 311 314 304 306 305 318 331 330 335 356 75 48 77 158 73 251 251 238 335 328 284 329 322 332 340 338 275 250 271 176 186 259 284 268 288 284 211 219 294 187 217 239 245
277 276 278 286 298 307 315 320 302 305 326 331 332 340 138 86 92 144 160 233 278 291 348 301 292 280 305 323 297 304 286 310 15 294 190 262 222 296 311 41 345 313 240 250 202 199 220
265 272 275 279 286 291 295 309 317 301 319 330 318 355 184 203 19 345 202 212 318 301 308 273 270 288 301 309 294 281 268 310 1 341 282 217 264 277 284 252 1 332 357 349 284 179 221
284 272 277 279 280 293 275 290 310 305 308 328 310 275 256 232 158 277 262 269 263 272 322 308 276 275 312 288 306 309 306 290 335 342 307 320 234 296 322 227 249 344 303 336 310 247 205
271 267 274 282 278 264 274 278 293 300 279 301 306 337 304 206 226 161 302 279 299 295 290 265 266 280 312 289 250 286 302 306 321 312 355 350 292 196 260 265 283 280 283 296 303 281 333
270 264 267 272 288 264 275 266 265 263 271 232 244 243 243 280 304 61 53 277 286 280 246 297 301 343 323 285 303 262 317 309 307 294 307 30 282 291 295 269 272 272 279 286 279 261 275
265 262 260 260 263 264 274 265 250 233 239 215 231 223 214 258 268 261 264 238 234 280 231 297 278 309 299 250 257 289 283 295 281 299 306 315 277 310 294 277 276 295 292 278 252 268 278
272 265 268 248 247 258 275 276 234 230 228 219 236 248 258 245 231 165 219 220 249 314 289 245 303 303 294 284 283 278 279 271 254 267 284 268 244 314 268 339 323 300 291 303 179 215 258
264 262 260 247 255 257 257 270 251 234 244 241 246 254 239 260 221 218 247 263 272 280 266 286 295 273 282 302 300 290 278 269 252 244 239 250 238 229 279 331 0 251 309 294 262 261 239
257 261 258 251 253 262 259 265 271 241 244 244 247 237 239 267 247 261 261 263 265 270 285 286 284 286 319 319 311 331 317 332 273 231 238 215 195 259 239 249 280 289 271 2 342 318 237
251 255 249 251 256 262 258 260 274 245 239 244 254 247 240 273 235 259 279 270 284 280 292 248 270 298 308 116 77 222 254 248 308 319 313 151 194 185 356 202 256 280 310 338 316 352 352
252 270 246 246 255 254 254 261 268 241 238 244 249 246 237 256 274 262 254 254 239 223 268 293 294 301 302 146 197 233 264 273 297 304 324 85 141 212 216 240 278 315 324 311 62 341 316
252 253 252 245 249 251 260 268 245 240 248 255 261 249 244 256 269 268 267 257 260 251 259 280 322 269 31 180 163 271 272 358 301 269 280 272 149 207 184 240 274 17 347 11 303 305 299
252 252 249 248 247 254 261 259 262 247 247 245 256 251 248 251 265 276 269 262 254 255 245 222 234 303 284 64 331 358 316 292 275 281 278 284 154 339 248 253 285 288 258 280 307 302 303